FW6002 Weather Reports


time (UTC)temp
C
wind
direction
speed
KPH
gust
KPH
rain 1hr
cm
rain 24hr
cm
rain mn
cm
humidity
%
barometer
mb
20260506201054 16 11 0.0 3.2 0.00 0.08 0.08 78 1014.1
20260506200555 16 0 0.0 3.2 0.00 0.08 0.08 78 1013.9
20260506200152 16 0 0.0 4.8 0.00 0.08 0.08 78 1014.0
20260506195554 16 0 0.0 4.8 0.00 0.08 0.08 79 1014.2
20260506195054 16 0 0.0 4.8 0.00 0.08 0.08 80 1014.3
20260506194604 16 0 0.0 4.8 0.00 0.08 0.08 80 1014.3
20260506194054 15 0 0.0 4.8 0.00 0.08 0.08 82 1014.4
20260506193555 15 0 0.0 3.2 0.00 0.08 0.08 81 1014.7
20260506193052 15 0 0.0 3.2 0.00 0.08 0.08 80 1014.8
20260506192556 15 0 0.0 4.8 0.00 0.08 0.08 82 1014.7
20260506192056 15 76 0.0 4.8 0.00 0.08 0.08 84 1014.7
20260506191556 15 34 0.0 4.8 0.00 0.08 0.08 82 1014.9
20260506191055 15 0 0.0 3.2 0.00 0.08 0.08 83 1014.8
20260506190555 15 0 0.0 1.6 0.00 0.08 0.08 84 1014.8
20260506190055 14 0 0.0 1.6 0.00 0.08 0.08 84 1015.0
20260506185554 13 23 0.0 1.6 0.00 0.08 0.08 85 1015.1
20260506185055 13 0 0.0 3.2 0.00 0.08 0.08 84 1015.2
20260506184555 13 0 0.0 3.2 0.00 0.08 0.08 85 1015.1
20260506184054 13 0 0.0 1.6 0.00 0.08 0.08 85 1015.1
20260506183554 13 0 0.0 1.6 0.00 0.08 0.08 85 1015.5
20260506183055 13 0 0.0 3.2 0.00 0.08 0.08 85 1015.3
20260506182553 13 0 0.0 3.2 0.00 0.08 0.08 85 1015.2
20260506182058 13 0 0.0 4.8 0.00 0.08 0.08 86 1015.4
20260506181554 13 0 0.0 6.4 0.00 0.08 0.08 86 1015.4
20260506181054 13 0 0.0 6.4 0.00 0.08 0.08 86 1015.5
20260506180557 13 22 0.0 6.4 0.00 0.08 0.08 85 1015.1
20260506180105 13 0 0.0 6.4 0.00 0.08 0.08 86 1015.1
20260506175554 13 0 1.6 6.4 0.00 0.08 0.08 85 1015.0
20260506175057 13 0 0.0 3.2 0.00 0.08 0.08 85 1014.7
20260506174556 13 24 0.0 8.0 0.00 0.08 0.08 86 1014.2
20260506174055 13 0 0.0 8.0 0.00 0.08 0.08 86 1014.2
20260506173552 13 360 1.6 8.0 0.00 0.08 0.08 86 1014.0
20260506173111 13 21 0.0 3.2 0.00 0.08 0.08 88 1013.7
20260506172558 12 19 0.0 4.8 0.00 0.08 0.08 87 1014.0
20260506172055 12 317 0.0 4.8 0.00 0.08 0.08 87 1013.8
20260506171602 13 0 0.0 3.2 0.00 0.08 0.08 87 1013.8
20260506171055 13 0 0.0 3.2 0.00 0.08 0.08 87 1013.8
20260506170554 13 0 0.0 3.2 0.00 0.08 0.08 88 1014.2
20260506170052 13 44 0.0 3.2 0.00 0.08 0.08 87 1014.6
20260506165554 13 0 0.0 3.2 0.00 0.08 0.08 88 1014.8
20260506165057 12 0 0.0 3.2 0.00 0.08 0.08 88 1014.6
20260506164554 12 0 0.0 4.8 0.00 0.08 0.08 88 1014.3
20260506164056 12 0 0.0 4.8 0.00 0.08 0.08 89 1014.1
20260506163556 12 0 0.0 4.8 0.00 0.08 0.08 88 1014.6
20260506163106 12 0 0.0 4.8 0.00 0.08 0.08 88 1014.4
20260506162558 12 38 0.0 4.8 0.00 0.08 0.08 88 1014.7
20260506162056 12 0 0.0 4.8 0.00 0.08 0.08 89 1014.5
20260506161559 12 0 0.0 4.8 0.00 0.08 0.08 89 1014.9
20260506161055 12 344 0.0 4.8 0.00 0.08 0.08 89 1014.5
20260506160556 12 80 0.0 4.8 0.00 0.08 0.08 89 1014.3
20260506160107 12 0 0.0 4.8 0.00 0.08 0.08 89 1014.1
20260506155555 12 0 0.0 4.8 0.00 0.08 0.08 90 1014.6
20260506155055 12 0 0.0 4.8 0.00 0.08 0.08 90 1014.4
20260506154555 12 206 0.0 4.8 0.00 0.08 0.08 90 1014.0
20260506154055 12 0 0.0 6.4 0.00 0.08 0.08 90 1013.9
20260506153555 12 274 1.6 6.4 0.03 0.08 0.08 90 1013.6
20260506153055 12 333 0.0 4.8 0.03 0.08 0.08 90 1013.9
20260506152556 12 80 0.0 4.8 0.03 0.08 0.08 91 1013.8
20260506152054 12 0 0.0 4.8 0.05 0.08 0.08 90 1013.5
20260506151554 12 313 0.0 6.4 0.08 0.08 0.08 91 1013.4
20260506151056 12 0 0.0 6.4 0.08 0.08 0.08 91 1013.2
20260506150556 11 31 0.0 4.8 0.08 0.08 0.08 90 1014.3
20260506150101 11 0 0.0 4.8 0.08 0.08 0.08 90 1014.3
20260506145600 11 0 0.0 4.8 0.08 0.08 0.08 90 1015.0
20260506145055 11 40 0.0 4.8 0.08 0.08 0.08 89 1015.4
20260506144555 11 0 0.0 3.2 0.08 0.08 0.08 89 1015.5
20260506144055 11 0 0.0 4.8 0.08 0.08 0.08 89 1015.3
20260506143556 11 167 0.0 4.8 0.05 0.05 0.05 88 1014.9
20260506143057 11 0 0.0 4.8 0.05 0.05 0.05 88 1014.4
20260506142554 11 333 0.0 4.8 0.05 0.05 0.05 87 1014.4
20260506142054 11 0 0.0 4.8 0.03 0.03 0.03 86 1014.9
20260506141556 12 0 0.0 3.2 0.00 0.00 0.00 85 1016.1
20260506141054 12 78 0.0 3.2 0.00 0.00 0.00 84 1016.3
20260506140559 12 0 0.0 3.2 0.00 0.00 0.00 84 1016.7
20260506140054 12 17 0.0 6.4 0.00 0.00 0.00 84 1014.9
20260506135557 12 0 0.0 8.0 0.00 0.00 0.00 84 1013.8
20260506135107 12 0 0.0 8.0 0.00 0.00 0.00 83 1012.9
20260506134616 12 227 1.6 4.8 0.00 0.00 0.00 83 1013.4
20260506134100 12 53 0.0 4.8 0.00 0.00 0.00 83 1014.0
20260506133556 12 87 0.0 4.8 0.00 0.00 0.00 82 1014.3
20260506133056 12 0 0.0 4.8 0.00 0.00 0.00 82 1014.2
20260506132555 12 0 0.0 4.8 0.00 0.00 0.00 82 1014.0
20260506132055 12 88 0.0 4.8 0.00 0.00 0.00 82 1014.0
20260506131609 12 0 0.0 4.8 0.00 0.00 0.00 82 1013.9
20260506131054 12 0 0.0 3.2 0.00 0.00 0.00 82 1013.6
20260506130555 12 77 0.0 3.2 0.00 0.00 0.00 81 1013.6
20260506130057 12 36 0.0 3.2 0.00 0.00 0.00 81 1013.5
20260506125554 13 302 0.0 4.8 0.00 0.00 0.00 81 1013.1
20260506125055 13 0 0.0 4.8 0.00 0.00 0.00 82 1013.1
20260506124555 13 0 0.0 4.8 0.00 0.00 0.00 81 1013.0
20260506124057 13 54 0.0 4.8 0.00 0.00 0.00 81 1012.7
20260506123556 13 23 0.0 3.2 0.00 0.00 0.00 81 1012.5
20260506123055 13 0 0.0 4.8 0.00 0.00 0.00 81 1012.8
20260506122556 13 144 0.0 4.8 0.00 0.00 0.00 81 1012.7
20260506122055 13 57 0.0 3.2 0.00 0.00 0.00 81 1012.5
20260506121606 13 0 0.0 4.8 0.00 0.00 0.00 81 1012.5
20260506121056 13 58 0.0 4.8 0.00 0.00 0.00 81 1012.3
20260506120556 13 27 0.0 4.8 0.00 0.00 0.00 80 1012.4
20260506120059 14 143 0.0 4.8 0.00 0.00 0.00 80 1012.1
20260506115554 14 0 0.0 3.2 0.00 0.00 0.00 80 1012.0
20260506115054 14 0 0.0 3.2 0.00 0.00 0.00 80 1012.3
20260506114556 14 0 0.0 3.2 0.00 0.00 0.00 80 1012.2
20260506114054 14 0 0.0 3.2 0.00 0.00 0.00 80 1012.0
20260506113554 14 303 0.0 4.8 0.00 0.00 0.00 80 1012.2
20260506113054 14 0 0.0 4.8 0.00 0.00 0.00 79 1012.1
20260506112555 14 0 0.0 3.2 0.00 0.00 0.00 79 1012.1
20260506112054 14 187 0.0 6.4 0.00 0.00 0.00 79 1011.9
20260506111611 14 5 0.0 6.4 0.00 0.00 0.00 79 1011.8
20260506111057 14 0 0.0 4.8 0.00 0.00 0.00 79 1011.9
20260506110556 14 360 0.0 3.2 0.00 0.00 0.00 80 1011.7
20260506110057 14 0 0.0 6.4 0.00 0.00 0.00 80 1011.6
20260506105556 15 0 0.0 6.4 0.00 0.00 0.00 80 1011.4
20260506105056 15 21 0.0 4.8 0.00 0.00 0.00 80 1011.2
20260506104554 15 40 0.0 6.4 0.00 0.00 0.00 80 1011.4
20260506104055 15 331 0.0 6.4 0.00 0.00 0.00 80 1011.3
20260506103557 15 0 0.0 4.8 0.00 0.00 0.00 81 1011.2
20260506103104 15 0 0.0 4.8 0.00 0.00 0.00 81 1010.9
20260506102557 15 0 0.0 4.8 0.00 0.00 0.00 81 1010.7
20260506102057 15 13 0.0 3.2 0.00 0.00 0.00 81 1010.8
20260506101558 15 0 0.0 3.2 0.00 0.00 0.00 81 1010.6
20260506101057 15 0 0.0 1.6 0.00 0.00 0.00 81 1010.7
20260506100556 15 0 0.0 1.6 0.00 0.00 0.00 81 1010.7
20260506100105 15 0 0.0 3.2 0.00 0.00 0.00 81 1010.5
20260506095556 15 0 0.0 3.2 0.00 0.00 0.00 81 1010.4
20260506095056 15 0 0.0 3.2 0.00 0.00 0.00 81 1010.4
20260506094602 15 352 0.0 4.8 0.00 0.00 0.00 81 1010.2
20260506094055 15 0 0.0 4.8 0.00 0.00 0.00 82 1010.2
20260506093559 15 0 0.0 4.8 0.00 0.00 0.00 82 1010.2
20260506093100 15 0 0.0 3.2 0.00 0.00 0.00 82 1010.2
20260506092557 15 0 0.0 3.2 0.00 0.00 0.00 82 1009.9
20260506092100 15 0 0.0 1.6 0.00 0.00 0.00 82 1010.1
20260506091610 15 360 0.0 3.2 0.00 0.00 0.00 82 1010.0
20260506091056 15 61 0.0 3.2 0.00 0.00 0.00 82 1010.2
20260506090557 15 0 0.0 3.2 0.00 0.00 0.00 82 1010.1
20260506090100 15 0 0.0 3.2 0.00 0.00 0.00 82 1010.1
20260506085555 15 0 0.0 3.2 0.00 0.00 0.00 82 1010.1
20260506085055 16 0 0.0 3.2 0.00 0.00 0.00 82 1010.0
20260506084605 16 0 0.0 3.2 0.00 0.00 0.00 82 1010.0
20260506084056 16 0 0.0 3.2 0.00 0.00 0.00 81 1010.1
20260506083555 16 0 0.0 4.8 0.00 0.00 0.00 81 1010.0
20260506083114 16 0 0.0 4.8 0.00 0.00 0.00 81 1009.9
20260506082557 16 56 0.0 4.8 0.00 0.00 0.00 81 1010.0
20260506082057 16 326 0.0 3.2 0.00 0.00 0.00 81 1009.8
20260506081554 16 0 0.0 3.2 0.00 0.00 0.00 81 1009.8
20260506081056 16 0 0.0 3.2 0.00 0.00 0.00 82 1009.7
20260506080557 16 254 0.0 8.0 0.00 0.00 0.00 81 1009.9
20260506073056 16 294 0.0 3.2 0.00 0.00 0.00 81 1009.5
20260506072554 16 0 0.0 3.2 0.00 0.00 0.00 81 1009.5
20260506072054 16 0 0.0 3.2 0.00 0.00 0.00 81 1009.5
20260506071600 16 0 0.0 3.2 0.00 0.00 0.00 81 1009.5
20260506071054 16 0 0.0 3.2 0.00 0.00 0.00 81 1009.3
20260506070554 16 0 0.0 1.6 0.00 0.00 0.00 81 1009.5
20260506070127 16 0 0.0 3.2 0.00 0.00 0.00 81 1009.2
20260506062055 16 0 0.0 3.2 0.00 0.00 0.00 80 1009.2
20260506061557 16 317 0.0 3.2 0.00 0.00 0.00 80 1009.2
20260506061056 17 0 0.0 3.2 0.00 0.00 0.00 79 1009.1
20260506060555 17 0 0.0 3.2 0.00 0.00 0.00 79 1009.1
20260506060104 17 0 0.0 3.2 0.00 0.00 0.00 79 1009.2
20260506051057 18 333 0.0 4.8 0.00 0.00 0.00 77 1009.2
20260506050555 18 0 0.0 3.2 0.00 0.00 0.00 77 1009.2
20260506050109 18 0 0.0 3.2 0.00 0.00 0.00 77 1009.4
20260506045059 18 71 0.0 3.2 0.00 0.00 0.00 77 1009.1
20260506044601 18 9 0.0 3.2 0.00 0.00 0.00 77 1009.0
20260506044055 18 0 0.0 3.2 0.00 0.00 0.00 77 1009.0
20260506043554 18 0 0.0 3.2 0.00 0.00 0.00 76 1009.0
20260506043057 18 0 0.0 3.2 0.00 0.00 0.00 76 1009.0
20260506042556 18 0 0.0 3.2 0.00 0.00 0.00 76 1009.2
20260506042055 19 0 0.0 3.2 0.00 0.00 0.00 76 1008.9
20260506041602 19 351 0.0 3.2 0.00 0.00 0.00 75 1009.1
20260506041055 19 0 0.0 4.8 0.00 0.00 0.00 75 1009.2
20260506040557 19 0 0.0 4.8 0.00 0.00 0.00 75 1009.1
20260506040100 20 0 0.0 4.8 0.00 0.00 0.00 75 1009.2
20260506035554 20 0 0.0 4.8 0.00 0.00 0.00 75 1009.2
20260506035054 20 0 0.0 4.8 0.00 0.00 0.00 74 1009.1
20260506034601 20 23 0.0 4.8 0.00 0.00 0.00 74 1009.1
20260506034054 20 0 0.0 4.8 0.00 0.00 0.00 74 1008.8
20260506033555 20 333 0.0 3.2 0.00 0.00 0.00 74 1008.7
20260506033058 20 0 0.0 3.2 0.00 0.00 0.00 74 1008.7
20260506032557 20 0 0.0 3.2 0.00 0.00 0.00 74 1008.7
20260506032057 20 69 0.0 6.4 0.00 0.00 0.00 74 1008.5
20260506031603 20 0 0.0 6.4 0.00 0.00 0.00 74 1008.3
20260506031055 20 44 0.0 3.2 0.00 0.00 0.00 74 1008.0
20260506030554 20 0 0.0 4.8 0.00 0.00 0.00 74 1007.8
20260506030100 20 5 0.0 4.8 0.00 0.00 0.00 74 1007.7
20260506025556 20 0 0.0 3.2 0.00 0.00 0.00 75 1007.7
20260506025054 21 296 0.0 6.4 0.00 0.00 0.00 74 1007.3
20260506024600 21 0 0.0 6.4 0.00 0.00 0.00 74 1007.2
20260506024054 21 40 0.0 3.2 0.00 0.00 0.00 73 1007.4
20260506023555 21 0 0.0 4.8 0.00 0.00 0.00 72 1007.5
20260506023055 21 13 0.0 4.8 0.00 0.00 0.00 72 1007.2
20260506022555 22 0 0.0 4.8 0.00 0.00 0.00 71 1007.1
20260506022054 22 0 0.0 4.8 0.00 0.00 0.00 71 1007.1
20260506021555 22 178 0.0 4.8 0.00 0.00 0.00 71 1006.8
20260506021056 22 0 0.0 8.0 0.00 0.00 0.00 71 1006.8
20260506020553 22 0 0.0 8.0 0.00 0.00 0.00 71 1006.7
20260506020107 22 38 1.6 8.0 0.00 0.00 0.00 71 1006.5
20260506015555 22 0 0.0 1.6 0.00 0.00 0.00 71 1006.5
20260506015055 22 0 0.0 3.2 0.00 0.00 0.00 71 1006.2
20260506014611 22 71 0.0 3.2 0.00 0.00 0.00 71 1006.3
20260506014054 22 0 0.0 3.2 0.00 0.00 0.00 71 1005.9
20260506013554 22 0 0.0 4.8 0.00 0.00 0.00 71 1005.7
20260506013055 22 0 0.0 4.8 0.00 0.00 0.00 70 1005.6
20260506012554 22 0 0.0 4.8 0.00 0.00 0.00 70 1005.4
20260506012055 22 0 0.0 3.2 0.00 0.00 0.00 70 1005.4
20260506011617 23 0 0.0 4.8 0.00 0.00 0.00 69 1005.2
20260506011055 23 0 0.0 4.8 0.00 0.00 0.00 69 1005.3
20260506010557 23 277 0.0 3.2 0.00 0.00 0.00 69 1005.1
20260506010054 23 0 0.0 3.2 0.00 0.00 0.00 69 1005.1
20260506005555 24 0 0.0 3.2 0.00 0.00 0.00 68 1005.2
20260506005054 24 0 0.0 3.2 0.00 0.00 0.00 68 1005.3
20260506004603 24 189 0.0 3.2 0.00 0.00 0.00 67 1005.1
20260506004054 25 18 0.0 6.4 0.00 0.00 0.00 66 1004.9
20260506003554 25 0 0.0 6.4 0.00 0.00 0.00 66 1004.6
20260506003056 25 0 0.0 6.4 0.00 0.00 0.00 66 1004.6
20260506002554 25 0 0.0 4.8 0.00 0.00 0.00 66 1004.6
20260506002054 26 0 0.0 4.8 0.00 0.00 0.00 66 1004.6
20260506001556 26 0 0.0 4.8 0.00 0.00 0.00 66 1004.4
20260506001054 26 84 0.0 4.8 0.00 0.00 0.00 65 1004.4
20260506000554 27 0 0.0 6.4 0.00 0.00 0.00 65 1004.5
20260506000117 27 340 0.0 6.4 0.00 0.00 0.00 63 1004.3
20260505235555 28 27 0.0 3.2 0.00 0.00 0.00 62 1004.2
20260505235055 28 302 0.0 4.8 0.00 0.00 0.00 61 1004.2
20260505234555 28 0 0.0 4.8 0.00 0.00 0.00 60 1003.8
20260505234055 29 51 0.0 4.8 0.00 0.00 0.00 58 1003.7
20260505233555 30 243 0.0 4.8 0.00 0.00 0.00 55 1003.5
20260505233057 30 0 0.0 1.6 0.00 0.00 0.00 57 1003.4
20260505232554 31 0 0.0 3.2 0.00 0.00 0.00 55 1003.2
20260505232055 31 165 0.0 4.8 0.00 0.00 0.00 54 1003.1
20260505231611 32 0 0.0 4.8 0.00 0.00 0.00 50 1003.1
20260505231054 32 215 0.0 3.2 0.00 0.00 0.00 49 1003.2
20260505230554 32 0 0.0 3.2 0.00 0.00 0.00 50 1003.2
20260505230107 32 0 0.0 3.2 0.00 0.00 0.00 50 1003.1
20260505225556 32 0 0.0 3.2 0.00 0.00 0.00 51 1003.0
20260505225054 32 0 0.0 1.6 0.00 0.00 0.00 51 1003.2
20260505224558 32 0 0.0 1.6 0.00 0.00 0.00 49 1003.2
20260505224054 32 0 0.0 1.6 0.00 0.00 0.00 51 1003.2
20260505223558 32 29 0.0 1.6 0.00 0.00 0.00 50 1003.2
20260505223101 32 0 0.0 3.2 0.00 0.00 0.00 47 1003.3
20260505222554 32 0 0.0 3.2 0.00 0.00 0.00 46 1003.1
20260505222054 32 66 0.0 3.2 0.00 0.00 0.00 46 1003.1
20260505221601 33 200 0.0 3.2 0.00 0.00 0.00 46 1003.1
20260505221055 32 0 0.0 3.2 0.00 0.00 0.00 47 1003.1
20260505220555 32 0 0.0 3.2 0.00 0.00 0.00 46 1002.9
20260505220058 33 0 0.0 3.2 0.00 0.00 0.00 48 1003.2
20260505215555 32 46 0.0 3.2 0.00 0.00 0.00 49 1003.1
20260505215057 32 0 0.0 3.2 0.00 0.00 0.00 46 1002.9
20260505214556 33 56 0.0 4.8 0.00 0.00 0.00 46 1003.1
20260505214100 33 22 0.0 4.8 0.00 0.00 0.00 49 1003.2
20260505213558 33 35 0.0 3.2 0.00 0.00 0.00 50 1003.2
20260505213057 33 0 0.0 3.2 0.00 0.00 0.00 46 1003.0
20260505212559 33 0 0.0 6.4 0.00 0.00 0.00 49 1003.3
20260505212056 33 0 0.0 6.4 0.00 0.00 0.00 47 1003.4
20260505211558 33 0 0.0 6.4 0.00 0.00 0.00 51 1003.3
20260505211056 33 0 0.0 4.8 0.00 0.00 0.00 48 1003.2
20260505210557 33 68 0.0 6.4 0.00 0.00 0.00 49 1003.3
20260505210054 33 99 0.0 6.4 0.00 0.00 0.00 48 1003.5
20260505205557 33 34 0.0 6.4 0.00 0.00 0.00 46 1003.5
20260505205056 33 0 0.0 6.4 0.00 0.00 0.00 47 1003.5
20260505204600 33 45 0.0 4.8 0.00 0.00 0.00 48 1003.8
20260505204057 33 97 0.0 4.8 0.00 0.00 0.00 47 1003.9
20260505203556 33 0 0.0 4.8 0.00 0.00 0.00 49 1003.9
20260505203102 33 79 0.0 6.4 0.00 0.00 0.00 49 1003.9
20260505202557 33 82 0.0 6.4 0.00 0.00 0.00 49 1003.7
20260505202056 33 54 0.0 4.8 0.00 0.00 0.00 52 1003.8
20260505201557 33 113 0.0 4.8 0.00 0.00 0.00 52 1004.1